Regional Weather Roundup
Issued by NWS San Angelo, TX

Home | Current Version | Previous Version | Text Only | Print | Product List | Glossary On
Versions: 1 2 3 4 5 6 7 8 9 10 11 12 13 14 15 16 17 18 19 20 21 22 23 24 25 26 27 28 29 30 31 32 33 34 35 36 37 38 39 40 41 42 43 44 45 46 47 48 49 50
000
ASUS44 KSJT 251210
RWRSJT
WEST CENTRAL TEXAS REGIONAL WEATHER ROUNDUP
NATIONAL WEATHER SERVICE SAN ANGELO TX
700 AM CDT THU MAY 25 2017

NOTE: "FAIR" INDICATES FEW OR NO CLOUDS BELOW 12,000 FEET WITH NO
SIGNIFICANT WEATHER AND/OR OBSTRUCTIONS TO VISIBILITY.

TXZ049-054-064>066-071>073-076>078-098-099-113-114-127-128-139-140-
154-155-168>170-251300
...LOCATIONS ACROSS WEST CENTRAL TEXAS...

CITY           SKY/WX    TMP DP  RH WIND       PRES   REMARKS
SAN ANGELO     CLEAR     66  43  43 S15       29.69R
ABILENE        CLEAR     65  46  50 S12       29.66R
DYESS AFB      CLEAR     68  47  46 S22G32    29.62R
JUNCTION       CLEAR     65  48  54 VRB6      29.75R
SWEETWATER     CLEAR     64  45  49 S18       29.68R
BROWNWOOD      CLEAR     55  50  82 SE8       29.71R
COLEMAN        SUNNY     58  47  66 S3        29.70R
SONORA         CLEAR     64  48  55 S8        29.80R
OZONA            N/A     59  45  58 S6        29.78R
BRADY          NOT AVBL
$$

TEXAS PANHANDLE/OKLAHOMA PANHANDLE

CITY           SKY/WX    TMP DP  RH WIND       PRES   REMARKS
AMARILLO       CLEAR     55  40  56 SW12      29.61R
BORGER         CLEAR     56  42  59 SW7       29.59R
CANADIAN       CLEAR     52  48  89 SE6       29.58S
DALHART        CLOUDY    51  43  74 W3        29.62R
DUMAS          SUNNY     55  40  58 W10       29.59F
GUYMON         NOT AVBL
HEREFORD       SUNNY     53  42  67 SW7       29.65R
PAMPA          SUNNY     53  47  78 S12       29.60R
PERRYTON       CLEAR     54  48  82 S10       29.55S
$$

SOUTHERN PANHANDLE/SOUTH PLAINS/ROLLING PLAINS

CITY           SKY/WX    TMP DP  RH WIND       PRES   REMARKS
LUBBOCK        PTCLDY    59  44  57 W10       29.65R
SNYDER         CLEAR     61  46  56 S10       29.67R
CHILDRESS      CLEAR     55  48  77 SE7       29.60S
SEMINOLE       SUNNY     60  44  56 W10       29.72R
$$

PERMIAN BASIN

CITY           SKY/WX    TMP DP  RH WIND       PRES   REMARKS
MIDLAND        CLEAR     62  47  57 SW10      29.70R
ODESSA         CLEAR     63  48  58 S8        29.71R
WINK           CLEAR     57  47  69 SE5       29.70R
$$

FAR WEST/SOUTHWEST MOUNTAINS/TRANS PECOS

CITY           SKY/WX    TMP DP  RH WIND       PRES   REMARKS
ALPINE         SUNNY     74  28  17 SW13      29.92R
DRYDEN           N/A     57  52  83 N6        29.73R
EL PASO        MOCLDY    79  20  11 W16G28    29.81R
FORT STOCKTON  CLEAR     70  38  31 SW15      29.73R
GUADALUPE PASS CLOUDY    67  17  14 S10       29.91R
MARFA          CLEAR     49  31  49 E6        29.93R
PECOS          SUNNY     56  40  56 CALM      29.71R
$$

DALLAS/FORT WORTH METROPLEX

CITY           SKY/WX    TMP DP  RH WIND       PRES   REMARKS
DFW AIRPORT    PTCLDY    61  53  75 SE9       29.70R
FTW MEACHAM    CLEAR     63  52  67 SE14      29.70R
DAL-EXECUTIVE  CLEAR     59  53  80 S7        29.72R
GRAND PRAIRIE  CLEAR     63  52  67 SE7       29.72S
ADDISON        NOT AVBL
MESQUITE       SUNNY     57  52  82 SE6       29.74R
LANCASTER      SUNNY     55  52  90 SE5       29.74R
$$

NORTH CENTRAL TEXAS

CITY           SKY/WX    TMP DP  RH WIND       PRES   REMARKS
SHRMAN/DENISON SUNNY     58  49  70 SE13      29.72S
GAINESVILLE    CLEAR     57  49  76 SE6       29.73R
BRIDGEPORT     SUNNY     57  51  80 SE7       29.70R
DENTON         CLEAR     60  52  74 SE10      29.70R
WAXAHACHIE     SUNNY     58  53  84 SE6       29.74R
GRANBURY       SUNNY     61  53  74 SE5       29.70R
$$

WESTERN NORTH TEXAS

CITY           SKY/WX    TMP DP  RH WIND       PRES   REMARKS
WICHITA FALLS  PTCLDY    57  49  74 SE8       29.63S
VERNON         SUNNY     59  47  66 SE7       29.63R
BRECKENRIDGE   SUNNY     70  45  40 S13       29.64R
COMANCHE       CLEAR     67  47  48 S13G23    29.69R
$$

CENTRAL AND SOUTH CENTRAL TEXAS

CITY           SKY/WX    TMP DP  RH WIND       PRES   REMARKS
AUSTIN/BERGSTM CLEAR     63  55  75 SW13      29.76R
WACO           CLEAR     59  54  83 SE7       29.73R
HILLSBORO      SUNNY     61  53  74 SE7       29.73R
TEMPLE         CLEAR     59  53  80 S7        29.74R
KILLEEN-GRAY   CLEAR     66  50  55 S8G17     29.72R
FORT HOOD      CLEAR     64  50  60 S8        29.70R
GEORGETOWN     CLEAR     66  50  55 S12       29.74
LAGO VISTA     FAIR      67  49  51 SW13G20   29.78R
SAN MARCOS     CLEAR     59  54  82 S9        29.80R
NEW BRAUNFELS  CLEAR     61  56  83 SW9       29.78R
RANDOLPH AFB   CLEAR     62  56  81 S5        29.80R
SAN ANTONIO    CLEAR     64  53  67 S5        29.81R
STINSON        CLEAR     60  54  80 CALM      29.78R
PLEASANTON     NOT AVBL
LA GRANGE      CLEAR     65  60  85 S5        29.77R
GIDDINGS       SUNNY     62  56  83 SW8       29.78R
$$

EAST TEXAS

CITY           SKY/WX    TMP DP  RH WIND       PRES   REMARKS
PARIS          PTCLDY    54  48  82 SE9       29.78R
CLARKSVILLE    NOT AVBL
TYLER          CLEAR     59  52  77 SE9       29.78R
LONGVIEW       PTCLDY    58  54  86 SE8       29.81R
PALESTINE      SUNNY     61  54  77 SE5       29.80R
NACOGDOCHES    CLEAR     43 N/A N/A SE6       29.80R WCI  39
$$

TEXAS HILL COUNTRY AND EDWARDS PLATEAU

CITY           SKY/WX    TMP DP  RH WIND       PRES   REMARKS
LLANO          SUNNY     57  52  82 CALM      29.78R
HORSESHOE BAY  NOT AVBL
KERRVILLE      CLEAR     61  53  75 S9        29.80R
FREDERICKSBRG  CLEAR     62  49  62 SW10      29.79R
ROCKSPRINGS    SUNNY     63  50  63 S13G18    29.82R
HONDO          CLEAR     55  52  89 N3        29.80R
UVALDE         SUNNY     56  53  91 CALM      29.79R
DEL RIO        CLEAR     63  51  65 E12       29.73R
$$

SOUTHEAST TEXAS

CITY           SKY/WX    TMP DP  RH WIND       PRES   REMARKS
COLLEGE STN    CLEAR     63  60  90 S7        29.77R
CALDWELL       NOT AVBL
CROCKETT       MOSUNNY   59  54  82 CALM      29.82S
BRENHAM        CLEAR     67  61  83 S3        29.79
HUNTSVILLE     CLEAR     64  56  75 S6        29.79R
CONROE         CLEAR     54  53  97 CALM      29.80R
HOUSTON BUSH   CLEAR     62  59  90 S3        29.80R
HOUSTON HOBBY  CLEAR     67  62  84 SW5       29.79R
PERLAND        CLEAR     69  62  78 CALM      29.81R
WHARTON        SUNNY     64  61  90 S5        29.80R
$$

THE UPPER TEXAS COAST

CITY           SKY/WX    TMP DP  RH WIND       PRES   REMARKS
ORANGE         SUNNY     60  60  98 CALM      29.84R
PORT ARTHUR    PTCLDY    64  59  83 S3        29.81R
GALVESTON      CLEAR     77  63  61 S15G23    29.81R
ANGLETON       CLEAR     65  62  90 S6        29.80R
BAY CITY       SUNNY     64  62  95 S5        29.79R
$$

TEXAS COASTAL BEND, RIO GRANDE PLAINS DEEP SOUTH TEXAS

CITY           SKY/WX    TMP DP  RH WIND       PRES   REMARKS
VICTORIA       CLEAR     66  62  87 S8        29.79R
BEEVILLE       FAIR      64  64 100 S8        29.80R
ROCKPORT       CLEAR     76  62  62 S10G18    29.79R
PORT ARANSAS   SUNNY     76  63  64 S18G25    29.80R
PORT LAVACA    SUNNY     67  64  90 CALM      29.80R
CORPUS CHRISTI PTCLDY    60  59  96 S5        29.80R
KINGSVILLE NAS PTCLDY    63  62  97 SE8       29.79S
COTULLA        CLEAR     62  53  72 SE5       29.78R
LAREDO         CLEAR     69  60  73 S14       29.77R
BROWNSVILLE    PTCLDY    72  66  81 SE7       29.80R
PORT ISABEL    CLEAR     71  65  81 S6        29.79R
HEBBRONVILLE   SUNNY     59  55  87 CALM      29.80R
MCALLEN        CLEAR     68  63  84 E5        29.79S
WESLACO        PTCLDY    68  64  84 SE5       29.79R
FALFURRIAS     SUNNY     63  59  87 CALM      29.80R
EDINBURG       MOSUNNY   67  62  84 CALM      29.79S
$$




USA.gov is the U.S. government's official web portal to all federal, state and local government web resources and services.